This demonstration page uses our WeatherBlox Daily Observations layout. Learn more.

Left ArrowRight Arrow

31.84235, -102.49876

Hourly Observations for August 1, 2015

Temp ( °F °C ) Dew Point ( °F °C ) Humidity (%) Winds ( mph kmh ) Pressure ( in mb ) Visibility ( mi km ) Precip ( " mm )
12:53 am 00:53 Partly Cloudy 83 28.3 62 16.7 49 49 ESE 10 17 29.97 1015 10 16 0.00 0.03
1:53 am 01:53 Mostly Cloudy 81 27.2 65 18.3 58 58 SE 9 15 29.97 1015 10 16 0.00 0.00
2:53 am 02:53 Clear 80 26.7 64 17.8 58 58 SSE 3 6 29.96 1015 10 16 0.00 0.00
3:53 am 03:53 Clear 79 26.1 62 16.7 56 56 SSE 7 11 29.94 1014 10 16 0.00 0.00
4:53 am 04:53 Clear 79 26.1 62 16.7 56 56 SSE 7 11 29.93 1014 10 16 0.00 0.00
5:53 am 05:53 Clear 78 25.6 62 16.7 58 58 S 8 13 29.93 1014 10 16 0.00 0.00
6:53 am 06:53 Clear 75 23.9 62 16.7 64 64 SE 5 7 29.94 1014 10 16 0.00 0.00
7:53 am 07:53 Sunny 77 25 62 16.7 60 60 ESE 5 7 29.96 1015 9 14 0.00 0.00
8:53 am 08:53 Sunny 80 26.7 63 17.2 56 56 undefined N/A 29.97 1015 10 16 0.00 0.00
9:53 am 09:53 Sunny 83 28.3 63 17.2 51 51 S 6 9 29.98 1015 10 16 0.00 0.00
10:53 am 10:53 Mostly Cloudy 87 30.6 62 16.7 43 43 SE 10 17 29.98 1015 10 16 0.00 0.00
11:53 am 11:53 Sunny 91 32.8 61 16.1 37 37 ESE 10 17 29.96 1015 10 16 0.00 0.00
12:53 pm 12:53 Partly Cloudy 92 33.3 59 15 33 33 VRB 6 9 29.96 1015 10 16 0.00 0.00
1:53 pm 13:53 Mostly Sunny 94 34.4 58 14.4 30 30 SSE 10 17 29.93 1014 10 16 0.00 0.00
2:53 pm 14:53 Mostly Sunny 96 35.6 56 13.3 26 26 ESE 13 20 29.90 1013 10 16 0.00 0.00
3:53 pm 15:53 Sunny 97 36.1 55 12.8 24 24 SE 13 20 29.86 1011 10 16 0.00 0.00
4:53 pm 16:53 Mostly Sunny 98 36.7 55 12.8 24 24 SSE 15 24 29.83 1010 10 16 0.00 0.00
5:53 pm 17:53 Mostly Sunny 92 33.3 62 16.7 37 37 E 20 31 29.84 1011 10 16 0.00 0.00
6:53 pm 18:53 Mostly Cloudy 93 33.9 60 15.6 33 33 ESE 18 30 29.85 1011 10 16 0.00 0.03
7:53 pm 19:53 Sunny 90 32.2 60 15.6 37 37 SE 21 33 29.85 1011 10 16 0.00 0.00
8:53 pm 20:53 Clear 85 29.4 62 16.7 46 46 SE 17 28 29.86 1011 10 16 0.00 0.00
9:53 pm 21:53 Clear 83 28.3 61 16.1 48 48 SSE 12 19 29.88 1012 10 16 0.00 0.00
10:53 pm 22:53 Clear 83 28.3 61 16.1 48 48 SSE 10 17 29.89 1012 10 16 0.00 0.00
11:53 pm 23:53 Clear 82 27.8 61 16.1 49 49 S 8 13 29.89 1012 10 16 0.00 0.00

Powered by AerisWeather